Location: Unspecified
(58.9933°N, 5.6375°E)
Time: 02:39:29
(UTC+01:00)

Cosmos 2058 - Visible Passes

Search period start: 20 December 2014 00:00
Search period end: 30 December 2014 00:00
Orbit: 568 x 593 km, 82.5° (Epoch: 18 December)

Date Brightness Start Highest point End Pass type
(mag) Time Alt. Az. Time Alt. Az. Time Alt. Az.
20 Dec 4.7 07:30:59 10° N 07:34:38 29° ENE 07:38:15 10° SE visible
21 Dec 4.4 07:36:04 10° N 07:39:54 35° ENE 07:43:43 10° SE visible
22 Dec 5.9 06:06:11 10° NE 06:06:56 10° NE 06:07:42 10° ENE visible
22 Dec 4.0 07:41:10 10° N 07:45:09 44° ENE 07:49:07 10° SE visible
23 Dec 5.7 06:10:31 10° NNE 06:12:20 13° NE 06:14:09 10° ENE visible
23 Dec 3.5 07:46:17 10° N 07:50:23 56° ENE 07:54:26 10° SSE visible
24 Dec 5.6 06:15:16 10° NNE 06:17:42 15° NE 06:20:07 10° E visible
24 Dec 3.1 07:51:25 10° N 07:55:34 72° ENE 07:59:42 10° SSE visible
25 Dec 5.5 06:20:09 10° NNE 06:23:02 18° NE 06:25:54 10° E visible
25 Dec 2.9 07:56:34 10° NNW 08:00:44 89° WSW 08:04:53 10° SSE visible
26 Dec 5.2 06:25:06 10° N 06:28:20 22° ENE 06:31:34 10° ESE visible
26 Dec 2.9 08:01:44 10° NNW 08:05:52 71° W 08:09:59 10° S visible
27 Dec 4.9 06:30:06 10° N 06:33:37 26° ENE 06:37:07 10° ESE visible
27 Dec 3.1 08:06:55 10° NNW 08:10:59 55° W 08:15:01 10° S visible
28 Dec 4.6 06:35:07 10° N 06:38:52 32° ENE 06:42:36 10° SE visible
28 Dec 3.3 08:12:08 10° NNW 08:16:04 43° W 08:19:59 10° SSW visible
29 Dec 4.2 06:40:10 10° N 06:44:05 39° ENE 06:47:59 10° SE visible
29 Dec 3.6 08:17:22 10° NNW 08:21:07 34° W 08:24:51 10° SSW visible
